Time,TemperatureF,DewpointF,PressureIn,WindDirection,WindDirectionDegrees,WindSpeedMPH,WindSpeedGustMPH,Humidity,HourlyPrecipIn,Conditions,Clouds,dailyrainin,SoftwareType,DateUTC
2013-01-15 00:07:00,40.6,40.1,29.94,NNE,22,3.2,-999.0,98,-99.99,,,0.00,Acu-Link.com,2013-01-15 06:07:00,
2013-01-15 00:22:00,40.6,40.1,30.00,WNW,292,2.7,-999.0,98,-99.99,,,0.00,Acu-Link.com,2013-01-15 06:22:00,
2013-01-15 00:38:00,40.6,40.1,29.96,East,90,4.7,-999.0,98,-99.99,,,0.00,Acu-Link.com,2013-01-15 06:38:00,
2013-01-15 00:53:00,40.8,40.3,29.96,NE,45,1.7,-999.0,98,-99.99,,,0.01,Acu-Link.com,2013-01-15 06:53:00,
2013-01-15 01:08:00,40.8,40.3,29.95,NNW,337,3.7,-999.0,98,-99.99,,,0.01,Acu-Link.com,2013-01-15 07:08:00,
2013-01-15 01:23:00,40.6,40.1,29.96,North,0,2.7,-999.0,98,-99.99,,,0.01,Acu-Link.com,2013-01-15 07:23:00,
2013-01-15 01:38:00,40.6,40.1,29.97,NNW,337,4.2,-999.0,98,-99.99,,,0.01,Acu-Link.com,2013-01-15 07:38:00,
2013-01-15 01:53:00,40.6,40.1,29.94,East,90,2.2,-999.0,98,-99.99,,,0.01,Acu-Link.com,2013-01-15 07:53:00,
2013-01-15 02:08:00,40.6,40.1,29.94,NE,45,2.2,-999.0,98,-99.99,,,0.01,Acu-Link.com,2013-01-15 08:08:00,
2013-01-15 02:23:00,40.8,40.3,29.92,NNW,337,2.2,-999.0,98,-99.99,,,0.01,Acu-Link.com,2013-01-15 08:23:00,
2013-01-15 02:38:00,40.8,40.3,29.96,NNE,22,2.7,-999.0,98,-99.99,,,0.03,Acu-Link.com,2013-01-15 08:38:00,
2013-01-15 02:54:00,41.0,40.5,29.94,NE,45,4.7,-999.0,98,-99.99,,,0.03,Acu-Link.com,2013-01-15 08:54:00,
2013-01-15 03:13:00,41.0,40.5,29.95,NW,315,2.7,-999.0,98,-99.99,,,0.03,Acu-Link.com,2013-01-15 09:13:00,
2013-01-15 03:29:00,41.0,40.5,29.92,NNE,22,5.3,-999.0,98,-99.99,,,0.09,Acu-Link.com,2013-01-15 09:29:00,
2013-01-15 03:44:00,41.2,40.7,29.91,East,90,1.1,-999.0,98,-99.99,,,0.09,Acu-Link.com,2013-01-15 09:44:00,
2013-01-15 03:59:00,41.4,40.9,29.90,North,0,1.7,-999.0,98,-99.99,,,0.09,Acu-Link.com,2013-01-15 09:59:00,
2013-01-15 04:14:00,41.4,40.9,29.90,NNW,337,2.2,-999.0,98,-99.99,,,0.09,Acu-Link.com,2013-01-15 10:14:00,
2013-01-15 04:29:00,41.4,40.9,29.92,ESE,112,1.7,-999.0,98,-99.99,,,0.10,Acu-Link.com,2013-01-15 10:29:00,
2013-01-15 04:44:00,41.4,40.9,29.89,NNW,337,1.7,-999.0,98,-99.99,,,0.17,Acu-Link.com,2013-01-15 10:44:00,
2013-01-15 04:59:00,41.4,40.9,29.89,East,90,1.7,-999.0,98,-99.99,,,0.25,Acu-Link.com,2013-01-15 10:59:00,
2013-01-15 05:14:00,41.5,41.0,29.89,NW,315,2.7,-999.0,98,-99.99,,,0.25,Acu-Link.com,2013-01-15 11:14:00,
2013-01-15 05:30:00,41.5,41.0,29.88,East,90,2.2,-999.0,98,-99.99,,,0.25,Acu-Link.com,2013-01-15 11:30:00,
2013-01-15 05:45:00,41.7,41.2,29.90,West,270,2.2,-999.0,98,-99.99,,,0.26,Acu-Link.com,2013-01-15 11:45:00,
2013-01-15 06:00:00,41.7,41.2,29.90,NNE,22,2.7,-999.0,98,-99.99,,,0.27,Acu-Link.com,2013-01-15 12:00:00,
2013-01-15 06:15:00,41.7,41.2,29.91,NE,45,2.2,-999.0,98,-99.99,,,0.28,Acu-Link.com,2013-01-15 12:15:00,
2013-01-15 06:30:00,41.9,41.4,29.88,NNE,22,3.2,-999.0,98,-99.99,,,0.30,Acu-Link.com,2013-01-15 12:30:00,
2013-01-15 06:45:00,41.9,41.4,29.92,NNW,337,2.2,-999.0,98,-99.99,,,0.32,Acu-Link.com,2013-01-15 12:45:00,
2013-01-15 07:00:00,41.9,41.4,29.93,South,180,0.0,-999.0,98,-99.99,,,0.37,Acu-Link.com,2013-01-15 13:00:00,
2013-01-15 07:15:00,41.9,41.4,29.93,West,270,2.2,-999.0,98,-99.99,,,0.38,Acu-Link.com,2013-01-15 13:15:00,
2013-01-15 07:30:00,42.1,41.6,29.93,WNW,292,3.2,-999.0,98,-99.99,,,0.38,Acu-Link.com,2013-01-15 13:30:00,
2013-01-15 07:46:00,42.3,41.8,29.92,NNE,22,2.2,-999.0,98,-99.99,,,0.38,Acu-Link.com,2013-01-15 13:46:00,
2013-01-15 08:01:00,42.4,41.9,29.89,NNE,22,2.2,-999.0,98,-99.99,,,0.38,Acu-Link.com,2013-01-15 14:01:00,
2013-01-15 08:16:00,42.8,42.3,29.95,North,0,1.7,-999.0,98,-99.99,,,0.38,Acu-Link.com,2013-01-15 14:16:00,
2013-01-15 08:31:00,43.0,42.5,29.94,NNE,22,1.7,-999.0,98,-99.99,,,0.38,Acu-Link.com,2013-01-15 14:31:00,
2013-01-15 08:46:00,42.8,42.3,29.94,NE,45,1.7,-999.0,98,-99.99,,,0.38,Acu-Link.com,2013-01-15 14:46:00,
2013-01-15 09:01:00,43.3,42.8,29.93,NW,315,1.7,-999.0,98,-99.99,,,0.38,Acu-Link.com,2013-01-15 15:01:00,
2013-01-15 09:16:00,43.5,43.0,29.95,NE,45,1.7,-999.0,98,-99.99,,,0.38,Acu-Link.com,2013-01-15 15:16:00,
2013-01-15 09:31:00,43.5,43.0,29.95,NNE,22,2.7,-999.0,98,-99.99,,,0.38,Acu-Link.com,2013-01-15 15:31:00,
2013-01-15 09:46:00,43.7,43.2,29.95,NNW,337,1.7,-999.0,98,-99.99,,,0.39,Acu-Link.com,2013-01-15 15:46:00,
2013-01-15 10:02:00,43.9,43.4,29.94,NNE,22,4.2,-999.0,98,-99.99,,,0.39,Acu-Link.com,2013-01-15 16:02:00,
2013-01-15 10:17:00,44.8,44.3,29.90,ESE,112,0.0,-999.0,98,-99.99,,,0.39,Acu-Link.com,2013-01-15 16:17:00,
2013-01-15 10:32:00,44.8,44.3,29.94,NNW,337,2.2,-999.0,98,-99.99,,,0.39,Acu-Link.com,2013-01-15 16:32:00,
2013-01-15 10:47:00,44.8,44.3,29.94,NNW,337,2.2,-999.0,98,-99.99,,,0.39,Acu-Link.com,2013-01-15 16:47:00,
2013-01-15 11:02:00,44.8,44.3,29.94,NW,315,2.2,-999.0,98,-99.99,,,0.39,Acu-Link.com,2013-01-15 17:02:00,
2013-01-15 11:17:00,45.0,44.5,29.92,WNW,292,2.2,-999.0,98,-99.99,,,0.39,Acu-Link.com,2013-01-15 17:17:00,
2013-01-15 11:32:00,45.1,44.6,29.89,NW,315,2.7,-999.0,98,-99.99,,,0.39,Acu-Link.com,2013-01-15 17:32:00,
2013-01-15 11:47:00,45.5,45.0,29.91,NE,45,3.2,-999.0,98,-99.99,,,0.39,Acu-Link.com,2013-01-15 17:47:00,
2013-01-15 12:02:00,45.3,44.8,29.86,NE,45,2.7,-999.0,98,-99.99,,,0.39,Acu-Link.com,2013-01-15 18:02:00,
2013-01-15 12:18:00,45.7,45.2,29.86,NNE,22,1.1,-999.0,98,-99.99,,,0.39,Acu-Link.com,2013-01-15 18:18:00,
2013-01-15 12:33:00,45.9,45.4,29.85,NE,45,3.7,-999.0,98,-99.99,,,0.39,Acu-Link.com,2013-01-15 18:33:00,
2013-01-15 12:48:00,45.7,45.2,29.85,NNW,337,5.8,-999.0,98,-99.99,,,0.39,Acu-Link.com,2013-01-15 18:48:00,
2013-01-15 13:03:00,45.7,45.2,29.85,NNW,337,4.7,-999.0,98,-99.99,,,0.39,Acu-Link.com,2013-01-15 19:03:00,
2013-01-15 13:18:00,45.3,44.8,29.86,WNW,292,3.2,-999.0,98,-99.99,,,0.39,Acu-Link.com,2013-01-15 19:18:00,
2013-01-15 13:33:00,45.3,44.8,29.84,West,270,3.7,-999.0,98,-99.99,,,0.39,Acu-Link.com,2013-01-15 19:33:00,
2013-01-15 13:48:00,45.9,45.4,29.86,North,0,3.7,-999.0,98,-99.99,,,0.39,Acu-Link.com,2013-01-15 19:48:00,
2013-01-15 14:03:00,45.9,45.4,29.86,NNW,337,2.2,-999.0,98,-99.99,,,0.39,Acu-Link.com,2013-01-15 20:03:00,
2013-01-15 14:18:00,46.0,45.5,29.83,North,0,2.7,-999.0,98,-99.99,,,0.39,Acu-Link.com,2013-01-15 20:18:00,
2013-01-15 14:34:00,45.5,45.0,29.83,NE,45,4.7,-999.0,98,-99.99,,,0.39,Acu-Link.com,2013-01-15 20:34:00,
2013-01-15 14:49:00,45.5,45.0,29.85,NNE,22,5.3,-999.0,98,-99.99,,,0.39,Acu-Link.com,2013-01-15 20:49:00,
2013-01-15 15:04:00,45.1,44.6,29.84,ENE,67,3.2,-999.0,98,-99.99,,,0.39,Acu-Link.com,2013-01-15 21:04:00,
2013-01-15 15:19:00,45.0,44.5,29.86,NW,315,3.2,-999.0,98,-99.99,,,0.39,Acu-Link.com,2013-01-15 21:19:00,
2013-01-15 15:34:00,44.6,44.1,29.86,WNW,292,4.7,-999.0,98,-99.99,,,0.39,Acu-Link.com,2013-01-15 21:34:00,
2013-01-15 15:49:00,44.4,43.9,29.85,North,0,1.1,-999.0,98,-99.99,,,0.39,Acu-Link.com,2013-01-15 21:49:00,
2013-01-15 16:04:00,44.1,43.6,29.85,NNW,337,2.7,-999.0,98,-99.99,,,0.39,Acu-Link.com,2013-01-15 22:04:00,
2013-01-15 16:19:00,43.7,43.2,29.85,WSW,247,4.2,-999.0,98,-99.99,,,0.39,Acu-Link.com,2013-01-15 22:19:00,
2013-01-15 16:34:00,43.5,43.0,29.89,NNW,337,5.3,-999.0,98,-99.99,,,0.39,Acu-Link.com,2013-01-15 22:34:00,
2013-01-15 16:50:00,43.2,42.7,29.86,NNE,22,5.3,-999.0,98,-99.99,,,0.39,Acu-Link.com,2013-01-15 22:50:00,
2013-01-15 17:05:00,43.0,42.5,29.88,NNW,337,3.2,-999.0,98,-99.99,,,0.39,Acu-Link.com,2013-01-15 23:05:00,
2013-01-15 17:20:00,42.8,42.3,29.89,SE,135,0.0,-999.0,98,-99.99,,,0.39,Acu-Link.com,2013-01-15 23:20:00,
2013-01-15 17:35:00,42.6,42.1,29.89,NW,315,3.2,-999.0,98,-99.99,,,0.39,Acu-Link.com,2013-01-15 23:35:00,
2013-01-15 17:50:00,42.4,41.9,29.86,West,270,2.2,-999.0,98,-99.99,,,0.39,Acu-Link.com,2013-01-15 23:50:00,
2013-01-15 18:05:00,42.4,41.9,29.88,North,0,1.1,-999.0,98,-99.99,,,0.39,Acu-Link.com,2013-01-16 00:05:00,
2013-01-15 18:20:00,42.4,41.9,29.84,NNE,22,4.7,-999.0,98,-99.99,,,0.39,Acu-Link.com,2013-01-16 00:20:00,
2013-01-15 18:35:00,42.4,41.9,29.84,NW,315,2.7,-999.0,98,-99.99,,,0.39,Acu-Link.com,2013-01-16 00:35:00,
2013-01-15 18:50:00,42.4,41.9,29.89,NNE,22,2.2,-999.0,98,-99.99,,,0.39,Acu-Link.com,2013-01-16 00:50:00,
2013-01-15 19:06:00,42.4,41.9,29.89,NNW,337,3.2,-999.0,98,-99.99,,,0.39,Acu-Link.com,2013-01-16 01:06:00,
2013-01-15 19:21:00,42.3,41.8,29.89,NE,45,2.7,-999.0,98,-99.99,,,0.39,Acu-Link.com,2013-01-16 01:21:00,
2013-01-15 19:36:00,42.3,41.8,29.90,NNE,22,5.3,-999.0,98,-99.99,,,0.39,Acu-Link.com,2013-01-16 01:36:00,
2013-01-15 19:51:00,42.3,41.8,29.91,NNW,337,3.7,-999.0,98,-99.99,,,0.39,Acu-Link.com,2013-01-16 01:51:00,
2013-01-15 20:06:00,42.1,41.6,29.87,West,270,1.7,-999.0,98,-99.99,,,0.39,Acu-Link.com,2013-01-16 02:06:00,
2013-01-15 20:21:00,42.1,41.6,29.87,West,270,4.7,-999.0,98,-99.99,,,0.40,Acu-Link.com,2013-01-16 02:21:00,
2013-01-15 20:36:00,41.9,41.4,29.87,NE,45,3.2,-999.0,98,-99.99,,,0.40,Acu-Link.com,2013-01-16 02:36:00,
2013-01-15 20:51:00,41.5,41.0,29.90,ESE,112,2.2,-999.0,98,-99.99,,,0.40,Acu-Link.com,2013-01-16 02:51:00,
2013-01-15 21:06:00,41.4,40.9,29.86,West,270,4.7,-999.0,98,-99.99,,,0.40,Acu-Link.com,2013-01-16 03:06:00,
2013-01-15 21:22:00,41.2,40.7,29.90,NNW,337,4.7,-999.0,98,-99.99,,,0.40,Acu-Link.com,2013-01-16 03:22:00,
2013-01-15 21:37:00,40.8,40.3,29.91,SW,225,3.7,-999.0,98,-99.99,,,0.40,Acu-Link.com,2013-01-16 03:37:00,
2013-01-15 21:52:00,40.8,40.3,29.87,NNE,22,3.2,-999.0,98,-99.99,,,0.40,Acu-Link.com,2013-01-16 03:52:00,
2013-01-15 22:07:00,40.8,40.3,29.90,NNE,22,3.2,-999.0,98,-99.99,,,0.40,Acu-Link.com,2013-01-16 04:07:00,
2013-01-15 22:22:00,40.5,40.0,29.90,NNW,337,3.7,-999.0,98,-99.99,,,0.40,Acu-Link.com,2013-01-16 04:22:00,
2013-01-15 22:37:00,40.5,40.0,29.89,West,270,4.2,-999.0,98,-99.99,,,0.40,Acu-Link.com,2013-01-16 04:37:00,
2013-01-15 22:52:00,40.3,39.8,29.90,NE,45,1.7,-999.0,98,-99.99,,,0.40,Acu-Link.com,2013-01-16 04:52:00,
2013-01-15 23:07:00,40.1,39.6,29.89,WNW,292,3.7,-999.0,98,-99.99,,,0.40,Acu-Link.com,2013-01-16 05:07:00,
2013-01-15 23:22:00,39.6,39.1,29.90,WNW,292,5.8,-999.0,98,-99.99,,,0.40,Acu-Link.com,2013-01-16 05:22:00,
2013-01-15 23:38:00,39.4,38.9,29.92,SE,135,7.3,-999.0,98,-99.99,,,0.40,Acu-Link.com,2013-01-16 05:38:00,
2013-01-15 23:53:00,39.2,38.7,29.92,North,0,5.8,-999.0,98,-99.99,,,0.40,Acu-Link.com,2013-01-16 05:53:00,